This demonstration page uses our WeatherBlox Daily Observations layout. Learn more.

Left ArrowRight Arrow

36.19886, -115.1175

Hourly Observations for May 18, 2022

Temp ( °F °C ) Dew Point ( °F °C ) Humidity (%) Winds ( mph kmh ) Pressure ( in mb ) Visibility ( mi km ) Precip ( " mm )
12:53 am 00:53 Clear 79 26.1 25 -3.9 14 14 W 5 7 29.85 1011 10 16 0.00 0.00
1:53 am 01:53 Clear 78 25.6 26 -3.3 15 15 N 8 13 29.86 1011 10 16 0.00 0.00
2:53 am 02:53 Clear 76 24.4 26 -3.3 16 16 N 6 9 29.87 1012 10 16 0.00 0.00
3:53 am 03:53 Clear 73 22.8 26 -3.3 17 17 NW 5 7 29.89 1012 10 16 0.00 0.00
4:53 am 04:53 Clear 71 21.7 26 -3.3 19 19 NW 7 11 29.90 1013 10 16 0.00 0.00
5:53 am 05:53 Sunny 70 21.1 30 -1.1 23 23 NNW 6 9 29.92 1013 10 16 0.00 0.00
6:53 am 06:53 Sunny 73 22.8 30 -1.1 20 20 WNW 7 11 29.94 1014 10 16 0.00 0.00
7:53 am 07:53 Sunny 80 26.7 27 -2.8 14 14 SSE 5 7 29.96 1014 10 16 0.00 0.00
8:53 am 08:53 Sunny 84 28.9 28 -2.2 13 13 ESE 3 6 29.97 1015 10 16 0.00 0.00
9:53 am 09:53 Sunny 88 31.1 29 -1.7 12 12 E 5 7 29.96 1015 10 16 0.00 0.00
10:53 am 10:53 Sunny 91 32.8 29 -1.7 11 11 ESE 6 9 29.96 1015 10 16 0.00 0.00
11:53 am 11:53 Sunny 93 33.9 30 -1.1 10 10 VRB 5 7 29.95 1014 10 16 0.00 0.00
12:53 pm 12:53 Sunny 94 34.4 26 -3.3 9 9 VRB 5 7 29.93 1014 10 16 0.00 0.00
1:53 pm 13:53 Sunny 96 35.6 26 -3.3 8 8 SSW 10 17 29.91 1013 10 16 0.00 0.00
2:53 pm 14:53 Sunny 97 36.1 25 -3.9 7 7 VRB 6 9 29.88 1012 10 16 0.00 0.00
3:53 pm 15:53 Sunny 97 36.1 25 -3.9 7 7 E 9 15 29.85 1011 10 16 0.00 0.00
4:53 pm 16:53 Sunny 97 36.1 25 -3.9 7 7 SE 5 7 29.83 1010 10 16 0.00 0.00
5:53 pm 17:53 Sunny 97 36.1 24 -4.4 7 7 SE 6 9 29.82 1010 10 16 0.00 0.00
6:53 pm 18:53 Sunny 96 35.6 23 -5 7 7 SE 5 7 29.81 1009 10 16 0.00 0.00
7:53 pm 19:53 Clear 95 35 24 -4.4 8 8 SSE 5 7 29.80 1009 10 16 0.00 0.00
8:53 pm 20:53 Clear 92 33.3 24 -4.4 8 8 SSE 3 6 29.81 1009 10 16 0.00 0.00
9:53 pm 21:53 Clear 90 32.2 25 -3.9 9 9 WSW 6 9 29.81 1010 10 16 0.00 0.00
10:53 pm 22:53 Clear 88 31.1 26 -3.3 10 10 WSW 3 6 29.80 1009 10 16 0.00 0.00
11:53 pm 23:53 Clear 84 28.9 27 -2.8 12 12 WNW 3 6 29.80 1009 10 16 0.00 0.00

Powered by AerisWeather